• In Uzbekistan
  • List of Countries
  • For 7 days
  • Water Temperature
  • Satellite Maps
  • Weather Map
  • Weather Widgets
  • user-avatar
    Login

    Hourly Weather Aluksne

    Today, 22 October, Sunday

    Time Temperature Precipitation Wind Pressure Humidity
    00:00 -2°C° 0 mm 0 mps 749 mmHg 90%
    01:00 -2°C° 0 mm 0 mps 749 mmHg 90%
    02:00 -2°C° 0 mm 0 mps 748 mmHg 89%
    03:00 -1°C° 0 mm 1 mps 748 mmHg 89%
    04:00 -1°C° 0 mm 1 mps 748 mmHg 89%
    05:00 -1°C° 0 mm 1 mps 748 mmHg 89%
    06:00 -1°C° 0 mm 1 mps 748 mmHg 87%
    07:00 -1°C° 0 mm 1 mps 748 mmHg 85%
    08:00 0°C° 0 mm 1 mps 748 mmHg 81%
    09:00 +1°C° 0 mm 1 mps 748 mmHg 73%
    10:00 +2°C° 0 mm 2 mps 747 mmHg 65%
    11:00 +3°C° 0 mm 2 mps 747 mmHg 57%
    12:00 +3°C° 0 mm 2 mps 747 mmHg 55%
    13:00 +4°C° 0 mm 2 mps 747 mmHg 53%
    14:00 +4°C° 0 mm 2 mps 747 mmHg 51%
    15:00 +2°C° 0 mm 2 mps 746 mmHg 57%
    16:00 +2°C° 0 mm 1 mps 746 mmHg 63%
    17:00 +1°C° 0 mm 1 mps 746 mmHg 69%
    18:00 +1°C° 0 mm 1 mps 746 mmHg 71%
    19:00 0°C° 0 mm 1 mps 746 mmHg 74%
    20:00 0°C° 0 mm 1 mps 746 mmHg 76%
    21:00 0°C° 0 mm 1 mps 746 mmHg 78%
    22:00 0°C° 0 mm 1 mps 746 mmHg 80%
    23:00 -2°C° 0 mm 0 mps 746 mmHg 81%

    Tomorrow, 23 October, Monday

    Time Temperature Precipitation Wind Pressure Humidity
    00:00 -1°C° 0 mm 1 mps 746 mmHg 82%
    01:00 -1°C° 0 mm 1 mps 746 mmHg 83%
    02:00 -1°C° 0 mm 1 mps 747 mmHg 84%
    03:00 -1°C° 0 mm 1 mps 746 mmHg 85%
    04:00 -1°C° 0 mm 1 mps 746 mmHg 87%
    05:00 -1°C° 0 mm 1 mps 746 mmHg 88%
    06:00 -3°C° 0 mm 2 mps 747 mmHg 88%
    07:00 -2°C° 0 mm 2 mps 747 mmHg 88%
    08:00 -2°C° 0 mm 2 mps 748 mmHg 88%
    09:00 -1°C° 0 mm 2 mps 748 mmHg 81%
    10:00 0°C° 0 mm 3 mps 748 mmHg 75%
    11:00 +1°C° 0 mm 3 mps 749 mmHg 68%
    12:00 +1°C° 0 mm 3 mps 749 mmHg 65%
    13:00 +2°C° 0 mm 3 mps 749 mmHg 61%
    14:00 +2°C° 0 mm 3 mps 749 mmHg 58%
    15:00 +1°C° 0 mm 3 mps 749 mmHg 63%
    16:00 +1°C° 0 mm 2 mps 750 mmHg 68%
    17:00 -2°C° 0 mm 2 mps 750 mmHg 73%
    18:00 -2°C° 0 mm 2 mps 750 mmHg 74%
    19:00 -3°C° 0 mm 2 mps 751 mmHg 76%
    20:00 -3°C° 0 mm 2 mps 751 mmHg 78%
    21:00 -3°C° 0 mm 2 mps 752 mmHg 80%
    22:00 -3°C° 0 mm 2 mps 752 mmHg 82%
    23:00 -4°C° 0 mm 2 mps 752 mmHg 84%

    Day after tomorrow, 24 October, Tuesday

    Time Temperature Precipitation Wind Pressure Humidity
    00:00 -4°C° 0 mm 2 mps 753 mmHg 85%
    01:00 -4°C° 0 mm 2 mps 753 mmHg 86%
    02:00 -4°C° 0 mm 2 mps 754 mmHg 88%
    03:00 -4°C° 0 mm 2 mps 754 mmHg 88%
    04:00 -4°C° 0 mm 2 mps 754 mmHg 88%
    05:00 -4°C° 0 mm 2 mps 754 mmHg 88%
    06:00 -4°C° 0 mm 2 mps 754 mmHg 87%
    07:00 -4°C° 0 mm 2 mps 755 mmHg 86%
    08:00 -4°C° 0 mm 2 mps 755 mmHg 84%
    09:00 -2°C° 0 mm 2 mps 755 mmHg 76%
    10:00 -1°C° 0 mm 2 mps 755 mmHg 68%
    11:00 +1°C° 0 mm 2 mps 756 mmHg 60%
    12:00 +2°C° 0 mm 2 mps 756 mmHg 57%
    13:00 +2°C° 0 mm 2 mps 756 mmHg 55%
    14:00 +3°C° 0 mm 2 mps 756 mmHg 53%
    15:00 +1°C° 0 mm 2 mps 756 mmHg 59%
    16:00 -1°C° 0 mm 2 mps 755 mmHg 65%
    17:00 -2°C° 0 mm 2 mps 755 mmHg 71%
    18:00 -3°C° 0 mm 2 mps 756 mmHg 73%
    19:00 -3°C° 0 mm 2 mps 756 mmHg 76%
    20:00 -4°C° 0 mm 2 mps 756 mmHg 78%
    21:00 -4°C° 0 mm 2 mps 756 mmHg 78%
    22:00 -4°C° 0 mm 2 mps 756 mmHg 78%
    23:00 -4°C° 0 mm 2 mps 756 mmHg 78%

    25 October, Wednesday

    Time Temperature Precipitation Wind Pressure Humidity
    00:00 -4°C° 0 mm 2 mps 756 mmHg 78%
    01:00 -4°C° 0 mm 2 mps 756 mmHg 78%
    02:00 -4°C° 0 mm 2 mps 756 mmHg 78%
    03:00 -4°C° 0 mm 2 mps 756 mmHg 77%
    04:00 -4°C° 0 mm 2 mps 756 mmHg 77%
    05:00 -4°C° 0 mm 2 mps 755 mmHg 76%
    06:00 -5°C° 0 mm 3 mps 755 mmHg 75%
    07:00 -5°C° 0 mm 3 mps 755 mmHg 75%
    08:00 -5°C° 0 mm 3 mps 755 mmHg 74%
    09:00 -4°C° 0 mm 3 mps 754 mmHg 68%
    10:00 -3°C° 0 mm 4 mps 754 mmHg 62%
    11:00 -1°C° 0 mm 5 mps 753 mmHg 56%
    12:00 -1°C° 0 mm 5 mps 753 mmHg 55%
    13:00 0°C° 0 mm 5 mps 752 mmHg 53%
    14:00 0°C° 0 mm 5 mps 752 mmHg 52%
    15:00 -1°C° 0 mm 5 mps 751 mmHg 55%
    16:00 -1°C° 0 mm 5 mps 750 mmHg 59%
    17:00 -2°C° 0 mm 5 mps 749 mmHg 62%
    18:00 -2°C° 0 mm 5 mps 749 mmHg 63%
    19:00 -2°C° 0 mm 5 mps 748 mmHg 64%
    20:00 -2°C° 0 mm 5 mps 747 mmHg 65%
    21:00 -2°C° 0.3 mm 5 mps 746 mmHg 68%
    22:00 -3°C° 0.3 mm 6 mps 746 mmHg 71%
    23:00 -3°C° 0.3 mm 6 mps 745 mmHg 73%

    26 October, Thursday

    Time Temperature Precipitation Wind Pressure Humidity
    00:00 -3°C° 0.8 mm 6 mps 744 mmHg 77%
    01:00 -3°C° 0.8 mm 6 mps 743 mmHg 81%
    02:00 -3°C° 0.8 mm 6 mps 742 mmHg 85%
    03:00 -3°C° 0.6 mm 6 mps 742 mmHg 86%
    04:00 -3°C° 0.6 mm 6 mps 741 mmHg 87%
    05:00 -2°C° 0.6 mm 6 mps 740 mmHg 88%
    06:00 -1°C° 0.6 mm 5 mps 740 mmHg 89%
    07:00 -1°C° 0.6 mm 5 mps 739 mmHg 91%
    08:00 -1°C° 0.6 mm 5 mps 739 mmHg 93%
    09:00 0°C° 0.3 mm 4 mps 739 mmHg 94%
    10:00 0°C° 0.3 mm 4 mps 738 mmHg 96%
    11:00 +1°C° 0.3 mm 3 mps 738 mmHg 97%
    12:00 +2°C° 0.1 mm 3 mps 738 mmHg 97%
    13:00 +3°C° 0.1 mm 3 mps 737 mmHg 98%
    14:00 +3°C° 0.1 mm 3 mps 737 mmHg 98%
    15:00 +4°C° 0 mm 2 mps 737 mmHg 98%
    16:00 +4°C° 0 mm 2 mps 736 mmHg 98%
    17:00 +3°C° 0 mm 2 mps 736 mmHg 98%
    18:00 +3°C° 0.3 mm 2 mps 736 mmHg 98%
    19:00 +3°C° 0.3 mm 2 mps 735 mmHg 98%
    20:00 +3°C° 0.3 mm 2 mps 735 mmHg 98%
    21:00 +3°C° 0.5 mm 2 mps 734 mmHg 98%
    22:00 +4°C° 0.5 mm 2 mps 734 mmHg 98%
    23:00 +4°C° 0.5 mm 2 mps 734 mmHg 98%

    27 October, Friday

    Time Temperature Precipitation Wind Pressure Humidity
    00:00 +3°C° 0.1 mm 2 mps 733 mmHg 98%
    01:00 +3°C° 0.1 mm 2 mps 733 mmHg 98%
    02:00 +3°C° 0.1 mm 2 mps 733 mmHg 98%
    03:00 +4°C° 0.1 mm 1 mps 733 mmHg 98%
    04:00 +4°C° 0.1 mm 1 mps 732 mmHg 98%
    05:00 +4°C° 0.1 mm 1 mps 732 mmHg 98%
    06:00 +4°C° 0.1 mm 1 mps 732 mmHg 98%
    07:00 +3°C° 0.1 mm 1 mps 732 mmHg 98%
    08:00 +3°C° 0.1 mm 1 mps 732 mmHg 98%
    09:00 +4°C° 0 mm 1 mps 731 mmHg 97%
    10:00 +4°C° 0 mm 1 mps 731 mmHg 95%
    11:00 +5°C° 0 mm 1 mps 731 mmHg 94%
    12:00 +5°C° 0 mm 1 mps 731 mmHg 93%
    13:00 +5°C° 0 mm 1 mps 731 mmHg 93%
    14:00 +5°C° 0 mm 1 mps 731 mmHg 92%
    15:00 +4°C° 0 mm 1 mps 731 mmHg 93%
    16:00 +4°C° 0 mm 1 mps 731 mmHg 95%
    17:00 +3°C° 0 mm 1 mps 731 mmHg 96%
    18:00 +3°C° 0 mm 1 mps 731 mmHg 96%
    19:00 +2°C° 0 mm 1 mps 730 mmHg 96%
    20:00 +1°C° 0 mm 0 mps 730 mmHg 96%
    21:00 0°C° 0 mm 0 mps 730 mmHg 96%
    22:00 0°C° 0 mm 0 mps 730 mmHg 95%
    23:00 -1°C° 0 mm 0 mps 730 mmHg 95%
    Show more